Flag for Greece Weather past 2 weeks in Chania, Crete, Greece

Now
45 °F

Passing clouds.


Feels Like: 45 °F
Forecast: 45 / 69 °F
Wind: No wind

Location: Souda Airport

Current Time: Dec 23, 2014 at 4:41:15 AM

Latest Report: Dec 23, 2014 at 2:50 AM


Visibility: N/A

Pressure: 30.27 "Hg

Humidity: 81%

Dew point: 39 °F

Location of ChaniaLocation

Historic Weather in Chania — Graph

°F

Chania temperature yesterday

Maximum temperature yesterday: 59 °F (at 12:20 AM)
Minimum temperature yesterday: 46 °F (at 9:50 PM)
Average temperature yesterday: 53 °F

Past Weeks' High & Low Weather Summary

 TemperatureHumidityPressure
High66 °F (Dec 11, 11:20 AM)100% (Dec 9, 6:50 AM)30.36 "Hg (Dec 9, 6:50 AM)
Low45 °F (Dec 23, 1:50 AM)43% (Dec 18, 1:50 PM)29.53 "Hg (Dec 9, 4:50 AM)
Average56 °F80%30.04 "Hg
* Reported Dec 8 2:20 AM — Dec 23 2:50 AM, Chania, Weather by CustomWeather, © 2014

Note: Actual official high and low records may vary slightly from our data, if they occured in-between our weather recording intervals... More about our weather records

Advertising

Chania weather history for previous 24 hours

 ConditionsComfort  
Time TempWeatherWind HumidityBarometerVisibility
2:50 AM
Dec 23
45 °FPassing clouds.No wind81%30.27 "HgN/A
2:20 AM45 °FPassing clouds.No wind81%30.27 "HgN/A
1:50 AM45 °FPassing clouds.No wind81%30.27 "HgN/A
1:20 AM46 °FPassing clouds.No wind82%30.30 "HgN/A
12:50 AM46 °FPassing clouds.No wind82%30.30 "HgN/A
11:50 PM
Dec 22
46 °FPassing clouds.No wind76%30.30 "HgN/A
11:20 PM46 °FPassing clouds.No wind76%30.30 "HgN/A
10:50 PM46 °FPassing clouds.No wind76%30.30 "HgN/A
10:20 PM46 °FPassing clouds.No wind76%30.33 "HgN/A
9:50 PM46 °FPassing clouds.No wind76%30.33 "HgN/A
9:20 PM48 °FPassing clouds.No wind71%30.33 "HgN/A
8:50 PM48 °FPassing clouds.No wind71%30.33 "HgN/A
8:20 PM48 °FPassing clouds.No wind71%30.33 "HgN/A
7:50 PM48 °FPassing clouds.No wind71%30.33 "HgN/A
7:20 PM48 °FPassing clouds.No wind76%30.33 "HgN/A
6:50 PM50 °FPassing clouds.No wind71%30.33 "HgN/A
6:20 PM50 °FPassing clouds.No wind71%30.33 "HgN/A
5:50 PM52 °FPassing clouds.No wind62%30.30 "HgN/A
5:20 PM52 °FPassing clouds.5 mph58%30.30 "HgN/A
4:50 PM52 °FPartly sunny.5 mph58%30.30 "HgN/A
4:20 PM54 °FScattered clouds.6 mph54%30.30 "HgN/A
3:50 PM54 °FScattered clouds.8 mph54%30.30 "HgN/A
3:20 PM54 °FScattered clouds.10 mph51%30.30 "HgN/A
2:50 PM54 °FScattered clouds.8 mph51%30.30 "HgN/A
2:20 PM55 °FScattered clouds.14 mph47%30.30 "HgN/A
1:50 PM55 °FPassing clouds.14 mph47%30.30 "HgN/A
1:20 PM55 °FScattered clouds.16 mph55%30.33 "HgN/A
12:50 PM55 °FScattered clouds.12 mph55%30.33 "HgN/A
12:20 PM55 °FScattered clouds.12 mph51%30.33 "HgN/A
11:50 AM55 °FScattered clouds.12 mph51%30.33 "HgN/A
11:20 AM54 °FPartly sunny.12 mph54%30.36 "HgN/A
10:50 AM54 °FPartly sunny.18 mph54%30.36 "HgN/A
10:20 AM55 °FPartly sunny.14 mph51%30.33 "HgN/A
9:50 AM55 °FPartly sunny.18 mph51%30.33 "HgN/A
9:20 AM54 °FPartly sunny.18 mph58%30.30 "HgN/A
8:50 AM54 °FPartly sunny.14 mph58%30.30 "HgN/A
8:20 AM54 °FPartly sunny.14 mph58%30.27 "HgN/A
7:50 AM54 °FPartly sunny.16 mph58%30.27 "HgN/A
7:20 AM55 °FPassing clouds.12 mph63%30.27 "HgN/A
6:50 AM55 °FPassing clouds.18 mph63%30.27 "HgN/A
6:20 AM55 °FPassing clouds.18 mph67%30.24 "HgN/A
5:20 AM55 °FPassing clouds.17 mph67%30.21 "HgN/A
4:50 AM55 °FPassing clouds.17 mph67%30.21 "HgN/A
4:20 AM57 °FPassing clouds.16 mph67%30.21 "HgN/A
Weather by CustomWeather, © 2014

See weather overviewHow to use our weather pages